Weather History for Jackson, MS

Change the Weather History Date:

Wednesday, January 9, 2013

  Actual Average Record
Temperature  
Mean Temperature 60 °F 45 °F  
Max Temperature 64 °F 56 °F 80 °F (1957)
Min Temperature 56 °F 35 °F 9 °F (1970)
Degree Days  
Heating Degree Days 5 20  
Month to date heating degree days 177 180  
Since 1 July heating degree days 1038 1130  
Cooling Degree Days 0 0  
Month to date cooling degree days 0 0  
Year to date cooling degree days 0 0  
Growing Degree Days 10 (Base 50)    
Moisture  
Dew Point 58 °F    
Average Humidity 95    
Maximum Humidity 100    
Minimum Humidity 90    
Precipitation  
Precipitation 0.32 in 0.15 in 2.38 in (1977)
Month to date precipitation 2.46 1.32  
Year to date precipitation 2.46 1.32  
Sea Level Pressure  
Sea Level Pressure 30.19 in    
Wind  
Wind Speed 7 mph (East)    
Max Wind Speed 15 mph    
Max Gust Speed 21 mph    
Visibility 5 miles    
Events Rain    
T = Trace of Precipitation, MM = Missing Value Source: NWS Daily Summary

Daily Weather History Graph

Daily Weather History Graph

Search for Another Location

Airport:

Trip Planner

Search our weather history database for the weather conditions in past years. The results will help you decide how hot, cold, wet, or windy it might be!

Date:

Astronomy

Jan. 09, 2013 Rise Set
Actual Time 7:02 AM CST 5:12 PM CST
Civil Twilight 6:35 AM CST 5:39 PM CST
Nautical Twilight 6:05 AM CST 6:10 PM CST
Astronomical Twilight 5:35 AM CST 6:39 PM CST
Moon 4:41 AM CST (1/9) 3:14 PM CST (1/9)
Length of Visible Light 11h 04m
Length of Day
10h 10m
Waning Crescent, 6% of the Moon is Illuminated
Jan 9
Waning Crescent
Jan 11
New
Jan 18
First Quarter
Jan 26
Full
Feb 3
Last Quarter

Hourly Weather History & Observations

Time (CST) Temp. Dew Point Humidity Pressure Visibility Wind Dir Wind Speed Gust Speed Precip Events Conditions
12:54 AM 55.9 °F 55.0 °F 97% 30.17 in 6.0 mi SE 4.6 mph - 0.03 in Rain Light Rain
1:18 AM 57.2 °F 55.4 °F 94% 30.19 in 6.0 mi SSE 8.1 mph - 0.02 in Rain Light Rain
1:32 AM 57.2 °F 55.4 °F 94% 30.19 in 6.0 mi SE 9.2 mph - 0.03 in Rain Light Rain
1:54 AM 57.0 °F 55.0 °F 93% 30.19 in 6.0 mi SE 8.1 mph - 0.04 in Rain Light Rain
2:54 AM 57.0 °F 55.0 °F 93% 30.18 in 7.0 mi ESE 6.9 mph - 0.04 in Rain Light Rain
3:54 AM 57.0 °F 55.0 °F 93% 30.16 in 6.0 mi ESE 10.4 mph - 0.03 in Rain Light Rain
4:54 AM 57.9 °F 55.0 °F 90% 30.15 in 9.0 mi East 9.2 mph - 0.02 in Rain Light Rain
5:17 AM 57.2 °F 55.4 °F 94% 30.16 in 8.0 mi East 10.4 mph 18.4 mph 0.00 in Rain Light Rain
5:54 AM 57.0 °F 55.9 °F 96% 30.18 in 7.0 mi Calm Calm - 0.00 in Rain Light Rain
6:54 AM 57.2 °F 55.4 °F 94% 30.19 in 7.0 mi ENE 4.6 mph - N/A   Overcast
7:21 AM 57.2 °F 55.4 °F 94% 30.22 in 7.0 mi Calm Calm - 0.00 in Rain Light Rain
7:54 AM 57.0 °F 55.0 °F 93% 30.22 in 5.0 mi NNE 3.5 mph - 0.01 in Rain Light Rain
8:54 AM 57.9 °F 55.9 °F 93% 30.23 in 5.0 mi East 5.8 mph - 0.00 in Rain Light Rain
9:54 AM 59.0 °F 57.0 °F 93% 30.24 in 5.0 mi Variable 4.6 mph - 0.01 in Rain Light Rain
10:54 AM 60.8 °F 57.2 °F 88% 30.24 in 5.0 mi East 5.8 mph - N/A Rain Light Rain
11:54 AM 60.1 °F 57.9 °F 93% 30.21 in 4.0 mi East 5.8 mph - 0.02 in Rain Light Rain
12:54 PM 60.1 °F 57.9 °F 93% 30.18 in 4.0 mi East 6.9 mph - 0.02 in Rain Light Rain
1:31 PM 60.8 °F 57.2 °F 88% 30.17 in 4.0 mi East 8.1 mph - 0.08 in Rain Light Rain
1:54 PM 60.1 °F 57.9 °F 93% 30.15 in 10.0 mi East 11.5 mph - 0.09 in Rain Light Rain
2:01 PM 60.8 °F 57.2 °F 88% 30.16 in 10.0 mi East 11.5 mph - 0.00 in Rain Light Rain
2:54 PM 61.0 °F 59.0 °F 93% 30.16 in 7.0 mi East 8.1 mph - 0.00 in   Overcast
3:54 PM 60.1 °F 59.0 °F 96% 30.17 in 4.0 mi NE 3.5 mph - 0.00 in   Overcast
4:03 PM 60.8 °F 59.0 °F 94% 30.17 in 2.5 mi ENE 6.9 mph - 0.01 in Rain Light Rain
4:10 PM 60.8 °F 59.0 °F 94% 30.17 in 3.0 mi ENE 5.8 mph - 0.01 in   Overcast
4:19 PM 60.8 °F 59.0 °F 94% 30.17 in 2.0 mi ENE 5.8 mph - 0.01 in   Overcast
4:27 PM 60.8 °F 59.0 °F 94% 30.18 in 1.8 mi ENE 5.8 mph - 0.01 in   Overcast
4:54 PM 60.1 °F 59.0 °F 96% 30.17 in 1.5 mi East 6.9 mph - 0.01 in   Overcast
5:45 PM 60.8 °F 59.0 °F 94% 30.18 in 2.0 mi ENE 8.1 mph - N/A   Overcast
5:54 PM 61.0 °F 60.1 °F 97% 30.18 in 2.5 mi East 6.9 mph - N/A   Overcast
6:21 PM 60.8 °F 60.8 °F 100% 30.19 in 3.0 mi East 8.1 mph - N/A   Overcast
6:28 PM 60.8 °F 60.8 °F 100% 30.19 in 2.5 mi East 8.1 mph - N/A   Overcast
6:54 PM 61.0 °F 60.1 °F 97% 30.19 in 2.5 mi East 6.9 mph - N/A   Overcast
7:01 PM 60.8 °F 60.8 °F 100% 30.20 in 2.5 mi East 6.9 mph - N/A   Overcast
7:12 PM 60.8 °F 60.8 °F 100% 30.20 in 2.5 mi East 5.8 mph - N/A   Overcast
8:54 PM 62.1 °F 61.0 °F 96% 30.21 in 2.0 mi East 6.9 mph - N/A   Overcast
9:01 PM 62.6 °F 60.8 °F 94% 30.21 in 2.0 mi East 6.9 mph - N/A   Overcast
9:17 PM 62.6 °F 60.8 °F 94% 30.21 in 2.0 mi East 8.1 mph - N/A   Overcast
9:32 PM 62.6 °F 60.8 °F 94% 30.21 in 2.0 mi East 8.1 mph - N/A   Overcast
9:54 PM 63.0 °F 61.0 °F 93% 30.21 in 2.0 mi East 9.2 mph - N/A   Overcast
10:29 PM 62.6 °F 60.8 °F 94% 30.21 in 3.0 mi ESE 11.5 mph - N/A   Overcast
10:54 PM 63.0 °F 62.1 °F 97% 30.19 in 3.0 mi ESE 9.2 mph - N/A   Overcast
11:54 PM 64.0 °F 62.1 °F 93% 30.19 in 6.0 mi ESE 12.7 mph - N/A   Overcast